Wind_Speed
25 25 25 26 26 26 26 26 27 28 29 30 31 32 34 35 36 36 38 41 43 45 44 46 49 49 50 50 49 50 50 49 50 53 56 59 61 63 64 66 68 68 69 71 71 72 73 74 75 75 76 77 78 79 81 82 83 83 83 83 83 83 84 84 84 85 85 84 84 84 84 83 83 82 82 83 84 84 85 86 86 86 87 88 89 90
25 26 26 27 27 27 27 28 29 30 31 32 33 34 35 37 39 38 41 44 46 48 47 48 50 50 50 51 50 51 51 51 53 57 59 61 63 63 65 68 69 70 72 73 74 74 75 76 76 77 78 80 81 82 83 84 84 84 84 84 84 84 85 85 85 85 85 85 85 85 85 85 85 84 85 85 85 86 87 88 88 88 87 87 89 90
25 26 27 28 28 28 28 29 31 32 33 34 35 37 38 40 42 41 42 45 47 49 49 50 52 52 52 53 54 54 54 55 57 59 61 63 64 64 67 69 71 72 74 74 75 76 77 77 79 80 81 82 83 84 84 84 85 85 86 86 86 86 87 87 86 86 85 85 85 85 86 86 86 87 87 88 88 88 89 89 90 90 89 88 88 89
26 26 26 27 28 29 29 31 32 34 35 37 38 40 41 42 45 45 45 47 48 50 52 52 53 54 55 55 56 57 56 56 59 60 62 64 65 66 68 70 72 73 74 75 76 77 78 80 81 81 82 83 84 84 85 86 87 87 88 87 87 87 88 87 86 85 85 85 85 86 87 87 88 88 89 89 89 90 91 91 92 92 92 91 90 90
26 27 27 28 29 30 32 33 35 36 37 39 41 42 43 44 46 48 48 49 48 50 53 53 52 53 56 56 57 57 56 57 59 60 62 65 66 68 69 70 72 73 75 76 77 79 81 82 82 83 84 85 86 87 88 89 89 88 88 87 87 87 87 86 85 86 86 86 86 87 87 87 88 87 87 88 89 90 91 92 93 94 94 94 93 92
27 28 29 31 33 34 35 36 38 39 39 41 42 43 44 46 46 47 49 50 49 50 52 55 55 53 55 58 58 57 58 58 59 61 64 67 68 69 69 71 73 74 75 77 79 81 82 82 84 85 86 87 88 89 89 89 88 88 88 88 87 87 87 87 87 87 87 87 87 86 85 85 84 84 83 83 84 85 87 89 91 93 95 96 96 96
30 31 32 34 35 36 37 38 39 40 40 41 42 43 44 46 47 47 49 50 51 52 53 56 57 55 56 59 59 58 58 58 59 63 66 68 69 70 71 73 73 74 76 78 80 81 82 84 86 87 87 87 88 88 88 89 89 89 89 89 88 87 87 87 87 87 86 85 84 82 81 80 79 78 77 77 77 78 79 82 85 87 91 94 97 98
33 33 34 36 37 38 38 39 39 39 40 41 42 43 44 45 46 47 49 50 52 53 54 56 58 58 59 60 60 58 58 59 63 66 68 69 70 71 72 73 73 75 77 79 80 82 84 86 86 86 86 87 88 89 90 90 90 91 91 90 89 87 86 86 85 84 83 81 79 77 75 73 72 72 71 71 71 72 72 74 76 79 82 86 89 93
34 35 36 36 37 38 39 39 40 40 41 42 43 44 45 46 47 48 49 50 52 54 55 57 59 60 60 61 61 59 59 62 66 69 70 70 70 71 72 73 75 77 79 80 82 84 85 85 85 86 87 89 90 91 91 90 90 91 92 92 90 87 84 83 81 79 77 76 74 71 69 66 64 63 63 63 63 64 64 65 67 70 72 75 77 81
35 35 36 37 37 39 40 41 41 42 43 43 44 45 46 47 48 50 50 51 53 55 56 58 60 62 63 62 61 62 63 66 69 70 70 69 69 71 72 75 78 79 80 81 83 83 84 84 85 87 89 91 91 91 91 90 90 91 93 92 89 85 82 79 76 74 72 69 67 64 61 58 55 54 54 54 53 53 54 55 56 58 60 62 65 68
35 36 37 38 38 39 40 42 43 44 45 45 46 47 47 48 50 51 52 53 55 57 58 59 61 64 66 64 62 63 65 68 69 69 69 70 72 73 75 78 79 79 80 81 81 82 82 83 86 88 90 91 92 92 92 92 91 91 91 90 86 82 78 74 71 69 66 63 59 56 52 49 48 47 47 46 44 43 45 45 46 47 47 49 52 55
35 36 38 39 40 41 42 43 45 46 47 48 48 49 50 51 52 54 55 56 58 57 57 58 59 62 65 64 63 64 66 68 69 70 72 73 73 75 78 79 79 78 79 80 80 81 83 86 88 90 91 92 93 93 93 93 92 90 88 85 82 78 73 70 67 64 60 55 50 48 45 44 43 42 42 42 40 39 40 40 40 40 40 42 44 46
35 37 39 40 41 43 44 45 45 47 48 49 50 51 53 54 55 57 58 58 59 58 57 58 59 62 63 64 64 65 66 68 70 71 72 73 75 77 78 77 77 77 78 79 81 83 86 89 90 92 93 94 94 94 94 93 92 89 85 81 77 73 69 66 62 59 53 46 42 42 41 41 40 39 39 39 37 37 37 37 38 38 39 40 41 43
36 38 40 42 43 45 45 46 47 48 50 51 51 52 54 56 58 60 60 60 60 60 60 60 61 64 64 64 64 64 66 68 70 72 73 75 77 77 76 76 77 78 78 80 82 85 88 90 91 93 94 95 94 94 94 92 90 86 82 77 73 69 65 60 56 51 44 38 37 39 40 40 38 37 36 36 35 34 34 35 36 37 38 39 41 42
40 40 43 44 45 46 46 48 49 49 51 52 52 53 54 56 59 61 62 63 64 64 63 61 63 66 66 66 65 63 66 69 70 73 75 76 75 75 77 78 78 79 80 83 85 87 89 90 92 94 94 95 94 94 93 89 86 82 78 74 69 65 60 54 48 42 37 35 35 37 38 38 37 35 33 33 33 32 31 32 34 36 37 38 40 41
43 42 44 46 47 48 47 49 51 51 52 54 53 54 55 57 58 60 62 63 65 67 66 63 64 66 67 67 64 64 67 69 71 74 75 76 76 77 78 78 79 81 84 86 87 89 90 91 93 95 95 95 94 93 89 85 81 78 74 70 65 60 54 47 40 34 33 34 35 37 37 36 35 33 31 31 31 30 29 30 31 33 34 36 38 39
47 44 45 48 49 49 49 50 51 52 53 54 54 54 55 57 58 61 63 63 65 68 68 66 66 68 68 66 63 65 69 69 72 75 76 77 78 77 77 78 81 84 86 87 88 90 91 92 94 95 95 95 93 90 85 79 76 73 69 65 60 55 47 39 34 31 33 35 35 36 35 34 34 31 29 29 29 28 28 28 28 29 31 34 35 36
51 47 45 50 51 50 51 52 52 52 53 54 55 55 56 57 59 62 65 65 65 69 69 68 68 71 71 67 65 67 70 71 74 77 78 77 77 76 78 81 84 86 88 89 89 91 92 94 95 95 95 94 91 86 80 75 72 68 64 59 55 49 40 33 31 32 34 35 35 34 33 32 32 30 28 27 27 26 26 26 27 27 28 30 32 33
54 52 49 50 53 52 51 52 52 53 54 55 56 56 57 59 60 62 65 66 67 70 72 71 70 73 72 68 66 69 72 75 78 78 77 77 77 79 82 84 85 88 89 90 91 93 94 95 95 94 94 92 87 82 77 72 68 63 59 53 48 42 36 31 32 34 35 35 34 32 31 31 30 28 27 26 26 25 25 25 26 27 27 28 29 31
54 56 53 51 53 53 52 53 54 54 55 56 56 57 58 59 61 62 64 65 67 71 75 75 74 76 74 68 68 72 76 77 77 78 78 79 81 83 84 85 87 88 89 91 93 94 94 94 94 94 93 89 83 78 73 69 64 59 53 47 41 36 33 32 33 35 35 35 33 31 30 29 28 27 26 25 24 24 24 25 25 26 27 27 28 29
55 57 57 54 53 52 52 53 55 55 56 57 56 57 58 60 61 63 64 64 66 70 74 76 78 79 74 69 71 75 76 76 77 79 81 82 84 84 84 85 87 88 90 92 93 94 94 94 93 92 89 84 79 75 70 65 60 55 48 42 36 33 32 32 34 35 35 34 33 30 29 28 27 25 24 24 23 23 23 24 24 25 26 27 28 28
56 58 59 57 54 52 52 54 55 56 57 57 57 58 59 61 62 65 65 65 66 70 71 73 79 79 73 71 75 76 77 78 80 82 83 84 85 84 84 86 87 89 91 92 93 94 94 94 92 89 84 79 76 71 67 62 56 50 43 36 32 31 32 33 34 35 34 33 31 28 27 26 25 24 23 23 22 22 23 24 24 25 26 27 28 29
57 58 60 60 57 54 54 55 56 57 57 56 57 59 60 61 62 64 66 67 69 71 70 72 79 78 73 74 77 77 78 81 81 82 84 84 85 84 85 86 88 89 90 92 94 94 94 93 89 84 79 76 72 68 64 59 53 46 39 33 30 30 32 34 34 34 33 31 28 26 25 25 24 23 22 22 22 23 24 25 25 25 26 27 28 30
57 58 61 61 59 57 57 58 58 58 58 57 58 58 60 61 61 63 65 67 70 71 70 73 78 77 74 75 77 78 81 82 81 82 83 84 85 85 86 88 89 90 90 92 94 94 94 90 84 79 76 72 69 65 62 56 50 42 35 30 29 30 32 33 33 33 31 29 26 24 23 23 22 21 21 21 22 23 24 24 25 25 26 27 28 29
58 58 60 62 62 62 62 61 60 60 59 58 58 58 59 61 62 64 66 67 70 71 72 75 78 77 76 77 78 79 81 81 81 82 83 84 85 86 88 89 90 90 92 93 94 93 91 86 79 75 72 68 65 62 58 54 47 39 31 28 28 30 31 32 32 31 29 26 24 22 22 22 21 21 21 21 22 22 23 23 23 23 24 25 26 27
60 59 59 61 61 62 62 62 62 62 61 60 58 58 59 61 63 65 66 67 70 72 74 75 78 80 79 78 79 81 81 81 82 83 84 85 86 87 89 90 90 92 93 94 93 91 87 81 75 71 67 64 61 59 55 50 44 35 29 27 29 30 30 30 30 29 26 24 23 22 22 22 22 21 21 22 22 22 22 22 22 22 23 24 25 26
62 61 60 60 59 58 60 62 63 63 63 61 59 58 60 63 64 65 66 68 69 72 74 74 76 81 81 80 81 82 82 83 84 85 86 87 87 89 89 91 92 93 94 93 92 88 82 77 72 67 64 61 58 56 53 47 40 32 26 26 28 29 29 28 27 26 24 22 22 22 22 22 22 22 22 23 23 23 22 22 23 23 23 23 24 24
65 64 64 63 60 58 61 64 63 62 62 61 60 60 62 64 64 65 66 67 68 73 75 74 75 81 82 81 82 83 84 85 85 86 87 88 88 89 90 92 93 93 93 92 89 84 79 74 70 65 62 59 57 54 50 44 36 29 25 25 27 28 27 25 24 23 22 21 21 22 22 22 22 23 23 24 24 24 24 24 24 24 24 24 24 24
67 67 68 67 63 60 63 65 64 63 62 61 60 62 64 65 65 66 66 67 69 72 75 76 78 80 81 81 82 83 84 85 86 87 87 88 88 90 91 92 93 93 92 89 85 80 76 72 68 63 60 58 56 53 48 41 32 25 24 25 26 25 24 23 22 22 21 21 21 22 22 23 23 23 24 24 24 24 25 25 25 25 24 24 24 24
69 69 71 72 67 63 65 67 65 64 64 62 61 63 65 66 66 67 68 68 70 72 74 78 80 80 79 81 83 83 84 85 86 86 87 87 89 90 92 93 93 92 89 85 81 77 73 69 65 61 58 56 54 51 47 39 29 23 23 24 24 23 21 21 21 21 20 20 20 21 22 23 23 24 24 25 24 24 24 24 24 24 23 23 23 24
71 71 73 75 72 68 69 70 68 66 66 64 64 65 66 67 68 69 70 71 72 73 75 78 80 79 79 81 83 84 85 86 86 86 86 88 89 91 92 92 91 88 84 80 78 75 72 68 64 60 57 55 53 50 45 36 27 22 23 24 22 21 19 19 19 20 20 19 19 20 20 21 23 24 24 24 24 24 23 22 22 21 21 22 22 22
73 73 74 76 75 73 73 73 71 69 69 67 68 69 68 69 71 72 73 73 73 75 78 79 80 81 82 83 84 84 85 86 86 86 87 89 90 92 92 91 87 84 81 78 75 73 71 68 65 60 57 54 52 49 43 33 24 21 22 23 21 20 19 18 18 19 20 20 20 20 20 20 21 23 23 23 23 23 22 21 20 19 19 20 19 19
74 75 75 76 77 76 76 76 74 73 73 72 71 72 71 71 73 76 76 74 72 74 78 80 81 82 83 84 85 86 86 87 87 87 88 90 91 91 90 87 84 81 78 76 74 71 69 67 65 61 58 55 52 49 42 31 23 21 22 22 20 20 19 18 18 19 20 21 21 21 21 21 21 22 22 22 22 22 21 21 20 19 18 18 17 16
75 76 76 77 79 79 78 78 77 74 73 74 74 73 73 74 76 78 78 75 73 74 77 79 80 81 82 84 86 88 88 88 88 87 88 90 91 89 86 83 80 78 76 74 72 69 67 65 63 61 57 54 52 49 41 30 22 21 22 21 20 20 20 19 18 19 21 22 22 22 22 21 21 21 21 21 21 20 20 20 19 17 16 15 14 12
76 77 77 77 79 81 80 80 79 76 73 74 75 74 75 76 77 80 81 77 74 77 79 80 81 82 83 85 86 88 89 89 88 87 88 88 87 84 83 80 77 76 74 73 71 68 66 64 62 59 56 53 51 49 40 28 21 21 21 21 21 20 20 19 19 20 21 22 22 21 21 21 21 21 20 19 19 19 19 18 16 15 14 12 11 11
77 78 78 78 78 81 82 80 79 78 75 75 77 76 76 78 78 81 85 80 77 81 83 83 84 85 85 86 87 88 89 89 88 87 86 84 82 80 79 78 76 74 73 71 70 68 66 64 61 59 56 52 49 47 39 26 20 20 21 22 21 20 20 20 20 21 21 22 22 21 22 22 22 21 20 18 18 18 17 16 14 13 11 10 11 12
78 79 79 79 78 81 82 81 81 81 80 78 78 77 77 79 79 83 88 86 83 84 85 85 86 87 87 88 89 88 89 90 88 85 83 81 79 78 77 75 74 73 71 70 68 66 64 62 59 57 55 51 48 45 37 25 20 20 21 22 21 21 20 20 20 21 22 22 22 23 23 23 23 22 20 18 17 17 15 14 13 10 10 12 12 11
79 79 80 80 79 80 83 82 81 81 81 80 79 78 78 79 80 83 88 89 87 86 86 86 88 89 89 90 90 90 90 90 87 84 82 80 78 77 76 74 73 72 70 69 67 65 62 60 57 55 53 49 46 42 34 24 20 20 21 22 21 21 20 20 21 22 22 23 24 24 24 23 23 21 19 17 16 15 14 13 11 11 13 13 12 10
80 80 81 81 81 81 82 82 79 78 79 79 79 79 79 80 82 85 89 91 89 87 87 88 90 90 90 91 91 90 90 89 87 84 81 80 78 76 76 75 73 72 70 67 65 63 61 58 54 52 49 46 43 39 29 21 19 20 21 21 21 21 20 20 21 22 23 23 24 23 23 21 19 17 16 15 14 13 12 12 12 14 14 13 11 10
81 81 82 82 82 81 82 82 79 77 77 78 79 80 82 83 85 87 90 92 91 89 89 90 91 90 91 91 90 88 87 86 85 83 80 79 78 76 75 74 73 71 69 66 63 61 58 55 52 49 46 43 41 36 26 18 18 19 20 21 21 21 20 20 21 22 23 23 21 20 19 17 14 12 11 11 11 11 11 13 15 15 14 12 10 8
82 82 83 83 83 82 82 84 82 79 79 80 80 82 84 86 87 88 90 91 92 92 92 91 91 91 91 90 88 86 84 82 81 80 79 79 78 76 75 73 71 69 66 64 61 58 55 52 49 47 44 41 39 33 23 17 17 18 19 20 20 20 20 19 20 22 22 20 17 15 13 10 7 6 6 7 8 10 12 15 16 15 13 11 9 7
83 84 84 85 84 82 82 84 83 81 81 82 82 83 85 87 88 89 90 90 92 94 94 93 91 91 90 88 86 84 82 80 79 79 79 79 78 76 75 73 71 68 65 62 59 57 53 49 46 43 41 38 36 29 21 16 16 17 18 18 19 20 19 19 20 21 19 16 12 9 7 5 2 1 3 5 7 10 15 17 16 15 13 11 9 7
84 85 85 85 85 84 83 83 82 80 80 81 83 85 86 86 87 89 91 93 94 95 96 94 92 90 89 87 86 83 81 79 79 80 80 80 78 77 75 73 71 68 65 62 58 55 52 49 45 41 38 36 33 26 18 14 14 16 17 17 18 20 19 18 19 19 16 12 9 6 4 5 5 5 4 4 7 12 17 17 16 14 11 10 9 7
85 86 86 86 86 85 83 83 81 79 80 81 82 84 86 87 88 90 93 96 96 96 97 96 93 90 88 86 85 82 81 80 81 82 83 82 80 78 76 73 70 68 65 61 58 55 52 48 43 39 36 34 31 24 17 13 13 15 16 16 16 18 18 17 17 16 12 9 7 5 4 4 5 4 2 3 8 14 18 17 14 12 10 9 8 6
85 86 86 86 87 85 84 84 82 80 81 82 81 83 86 88 90 93 96 98 98 97 97 96 94 90 87 85 83 82 81 82 83 84 85 83 81 78 76 73 70 67 65 61 57 54 51 47 42 37 33 31 29 22 16 13 13 14 15 15 15 17 17 16 16 14 11 8 7 5 4 3 3 2 0 3 9 16 18 16 13 11 9 8 6 6
85 86 86 87 89 88 87 86 84 81 81 83 83 84 88 91 93 95 97 99 99 98 97 96 94 91 87 84 83 83 82 83 85 86 86 84 82 79 76 73 69 66 64 61 57 53 49 45 40 35 30 28 25 20 15 13 13 13 13 13 14 16 16 15 14 12 10 8 7 6 5 4 3 1 1 4 12 18 18 15 13 10 9 7 5 5
84 85 87 88 90 91 90 89 86 82 82 84 86 87 90 93 95 97 99 100 101 100 99 96 93 90 87 84 84 84 84 85 87 88 88 86 83 80 76 73 69 66 63 60 56 52 47 43 38 32 27 25 21 16 13 12 13 13 13 12 13 15 15 14 13 11 9 7 6 6 5 4 3 2 2 6 14 19 17 14 12 11 9 6 4 4
85 86 88 90 91 91 91 90 89 85 83 84 87 89 92 95 97 99 101 102 103 103 101 97 93 90 87 85 84 84 85 86 89 90 90 88 84 80 76 72 68 65 61 57 53 49 45 41 36 31 26 22 17 12 11 11 12 12 12 12 12 13 14 13 12 11 9 7 6 6 5 4 4 2 3 8 16 19 17 14 12 11 9 6 3 2
85 87 89 91 92 92 91 91 92 91 88 86 88 91 94 98 100 102 103 104 104 103 102 99 94 90 87 85 85 85 87 88 91 92 92 89 85 81 76 72 68 64 59 55 50 47 43 39 34 29 24 21 15 9 9 10 10 11 12 12 11 12 14 13 11 10 9 6 6 6 6 5 3 2 4 10 17 20 17 14 13 11 8 5 3 2
85 87 89 91 93 94 93 92 93 94 93 91 91 93 96 99 102 104 105 106 105 104 102 100 95 91 87 85 85 86 88 90 92 94 93 90 86 81 76 72 67 62 57 52 48 45 41 37 32 27 23 19 13 8 8 8 9 11 12 11 10 11 13 13 10 9 8 6 5 5 6 5 3 2 5 12 18 20 18 14 13 12 9 6 4 1
86 87 90 92 94 95 94 92 92 94 94 93 93 94 97 100 103 105 106 107 106 105 103 100 96 92 89 86 85 86 88 91 94 96 95 91 85 80 75 70 65 60 55 50 46 42 38 35 30 25 21 17 11 7 7 7 9 10 11 11 10 10 12 13 10 7 7 6 4 5 5 4 2 2 6 13 19 21 18 16 14 12 9 7 4 0
Wind_Direction
342 339 339 339 339 339 338 337 334 331 330 328 327 324 322 321 320 318 316 316 315 315 316 315 315 316 316 315 315 313 312 314 315 315 316 317 316 316 314 313 311 310 310 310 311 311 310 309 308 307 306 304 303 303 302 302 301 301 300 299 298 297 296 295 294 293 292 289 287 285 283 281 279 276 273 270 268 265 263 261 259 258 257 256 255 254
344 343 345 346 345 343 340 337 334 331 328 326 324 322 320 320 319 319 318 317 316 315 316 316 315 317 316 315 316 315 315 318 318 318 318 317 316 315 313 311 310 310 311 312 312 311 309 309 308 306 305 304 304 303 303 303 302 301 301 300 299 298 297 296 295 293 291 289 287 285 283 281 278 276 273 270 267 265 262 260 258 257 255 254 254 253
350 349 348 347 344 341 336 332 329 327 326 324 323 321 321 319 319 320 319 318 318 317 317 317 317 318 316 316 316 315 317 319 318 318 318 316 315 313 311 310 311 312 313 312 311 310 309 308 307 306 305 305 304 303 303 303 302 302 301 301 300 299 298 297 295 293 290 288 286 284 282 280 278 275 273 270 267 265 262 260 258 256 255 254 253 252
353 349 344 340 338 335 331 328 327 326 324 324 324 323 322 322 322 322 320 320 321 320 319 318 317 317 316 316 314 315 318 319 319 318 317 314 312 311 311 312 313 313 312 311 310 309 308 307 306 306 306 305 304 304 304 304 304 304 303 302 301 300 299 297 295 292 290 288 286 284 282 280 278 276 274 271 268 265 262 260 258 257 255 253 252 252
348 344 338 334 332 331 329 328 328 327 326 326 326 325 325 325 325 324 322 321 320 320 318 317 316 317 317 316 315 317 319 320 319 317 314 312 311 312 314 314 313 312 312 310 309 308 308 307 307 307 306 306 306 307 307 306 305 304 303 302 302 301 299 297 295 293 291 289 287 285 283 281 279 276 274 271 269 266 263 261 259 257 256 254 252 252
342 339 335 333 332 332 330 329 329 329 328 327 326 326 326 325 325 324 322 320 318 318 318 317 317 319 319 316 317 319 320 320 318 314 311 311 313 315 315 313 312 312 311 309 308 308 308 308 308 308 308 309 309 308 307 306 305 304 303 303 303 302 300 298 297 294 292 290 289 287 284 282 279 276 274 271 268 266 264 262 260 258 256 255 253 252
338 336 335 333 332 332 330 330 329 328 327 326 325 325 325 325 324 323 321 319 320 320 320 318 318 321 321 319 320 322 320 319 316 312 312 314 316 316 314 312 312 311 309 309 309 309 309 309 309 310 310 310 309 308 307 307 306 305 305 305 304 303 301 299 297 295 293 291 289 287 285 282 280 278 275 272 269 266 263 262 260 258 257 256 254 253
336 335 334 332 331 330 330 329 328 327 326 325 325 324 324 324 323 322 322 322 322 321 322 321 321 324 323 321 322 322 320 318 315 314 315 316 315 314 312 312 311 310 310 310 311 311 310 311 312 312 311 310 309 308 309 309 308 308 307 306 305 304 302 300 298 296 294 292 290 287 285 283 281 279 276 274 271 268 265 262 260 259 257 256 255 254
335 335 334 332 331 330 329 328 327 327 326 326 325 325 325 325 325 325 325 323 322 323 324 324 324 325 323 322 321 320 320 319 316 316 317 316 314 313 313 312 312 312 312 312 312 312 312 313 313 312 311 310 310 310 310 310 310 309 308 307 306 305 303 300 298 296 294 292 290 288 285 283 280 278 276 275 273 271 268 265 262 260 258 257 256 254
335 334 333 333 332 331 329 328 328 327 328 328 327 327 328 327 327 327 325 324 325 327 327 326 327 324 321 321 321 321 322 320 319 318 317 315 314 313 313 312 313 313 313 312 312 313 313 314 313 312 311 311 311 311 311 311 310 309 309 308 307 305 303 300 298 295 293 292 289 287 284 281 278 276 276 276 275 273 271 268 265 262 260 258 256 255
336 335 335 335 334 333 331 329 329 329 330 329 328 329 330 330 329 328 327 327 329 331 330 328 327 323 320 322 322 324 324 321 319 318 315 314 313 312 312 313 313 313 312 312 313 313 313 313 312 312 312 312 312 312 312 311 311 310 309 308 307 305 303 300 298 295 293 291 287 284 282 279 277 276 276 276 274 271 270 269 266 263 260 257 255 254
339 339 338 337 336 336 334 332 331 331 331 330 329 329 331 332 332 331 331 330 331 333 331 328 325 322 320 322 324 325 322 318 316 314 312 312 311 312 313 313 313 313 313 314 314 314 313 312 313 313 313 313 313 313 313 312 312 311 310 308 307 305 303 301 298 296 293 289 284 280 279 279 279 277 276 275 272 267 266 265 263 261 258 255 253 252
344 342 341 340 340 339 337 336 334 332 332 331 330 329 329 331 332 333 333 331 332 332 329 327 326 322 322 323 324 324 319 315 314 312 312 312 312 314 314 313 314 315 315 315 314 314 314 314 315 315 315 315 315 315 314 314 313 312 310 309 307 305 303 301 299 295 291 285 280 279 280 280 280 278 275 274 270 266 262 259 258 256 254 252 251 250
350 346 344 343 343 342 340 338 336 334 333 332 332 330 329 329 330 332 331 329 330 332 332 330 326 324 324 323 324 322 318 315 314 313 313 314 315 316 315 315 316 315 314 314 314 314 315 316 316 316 316 317 317 316 316 315 314 312 311 309 307 305 304 302 298 293 288 281 278 281 282 282 281 277 275 273 270 265 260 256 254 253 252 251 250 250
354 350 347 345 344 343 341 338 337 336 334 334 334 332 330 330 330 330 328 326 327 330 334 333 327 324 324 324 325 323 318 315 315 315 315 316 317 316 316 316 315 314 314 315 315 316 317 317 317 318 318 318 318 317 317 316 314 312 311 310 308 307 305 301 296 290 284 281 282 283 283 283 282 278 276 274 272 266 261 257 254 252 252 251 252 253
356 353 348 347 345 344 342 339 338 337 335 335 335 332 331 331 329 328 327 326 325 327 332 333 328 325 323 324 326 321 316 316 316 316 316 316 317 317 316 316 315 315 316 316 317 318 319 319 319 319 319 319 318 318 317 315 313 312 311 310 309 307 305 300 293 287 284 285 287 286 284 283 283 280 278 276 273 268 262 258 254 252 252 252 253 254
356 356 350 347 347 345 343 340 339 338 336 335 335 333 332 330 329 327 326 327 325 325 329 331 328 324 323 326 326 318 316 318 317 316 317 317 317 317 317 316 317 317 317 318 319 320 320 320 321 320 320 319 319 318 317 315 313 312 311 310 309 306 302 297 291 287 288 289 289 287 286 285 284 282 280 276 272 269 265 261 258 253 251 251 251 252
355 357 353 348 347 347 344 341 340 339 337 336 335 334 332 330 330 328 326 327 326 325 328 330 328 323 324 328 326 320 319 319 318 318 318 318 318 318 318 318 318 318 319 320 321 321 321 321 321 321 320 320 319 318 317 315 313 312 311 311 308 304 299 294 291 290 291 291 290 288 287 286 285 284 281 277 273 270 268 266 263 258 253 250 250 250
353 355 356 350 348 348 345 342 341 340 339 338 336 335 332 331 331 329 327 327 326 324 326 330 329 323 326 330 326 322 323 322 320 321 320 320 320 320 320 320 319 320 320 321 321 321 322 322 322 322 321 320 319 318 317 316 314 313 312 310 305 300 296 293 293 294 294 293 292 291 289 288 287 284 281 278 274 271 269 266 264 261 257 253 250 250
353 354 356 354 350 348 345 343 342 341 341 339 337 335 333 331 330 329 328 327 325 324 324 328 328 325 328 331 326 324 326 324 322 322 321 321 322 322 322 321 320 321 321 321 321 322 322 323 323 322 321 320 320 319 318 316 315 314 313 309 301 295 292 292 294 295 295 294 294 293 290 288 287 284 281 278 275 271 268 266 263 262 260 256 252 250
354 353 354 355 352 349 345 344 343 342 341 340 338 335 333 332 330 328 329 327 324 324 325 326 327 328 331 330 326 326 327 323 321 322 322 322 322 322 322 321 321 321 321 321 322 322 323 323 323 322 321 321 320 319 318 316 315 314 312 306 297 291 291 292 295 296 295 294 294 292 289 286 285 283 281 279 276 272 269 267 265 263 261 259 256 252
353 352 352 354 353 350 346 344 344 343 342 341 338 336 333 332 331 328 328 329 326 325 327 324 324 331 333 327 325 327 325 322 322 323 322 322 321 321 321 321 321 321 321 322 322 322 323 323 323 323 322 321 320 319 318 317 315 314 311 303 293 290 292 295 297 296 294 294 293 290 285 283 283 281 280 279 277 275 273 272 270 266 264 261 259 255
352 351 351 352 353 351 347 346 345 344 344 342 338 336 334 333 331 328 327 329 327 327 327 322 323 331 331 325 325 326 322 322 323 322 322 321 321 321 321 321 321 321 321 322 322 323 323 324 324 324 322 322 321 319 318 317 316 314 310 300 293 292 294 297 298 297 295 294 293 287 282 281 280 279 279 277 276 275 274 273 272 270 267 264 261 258
352 351 350 351 351 350 348 348 347 346 346 344 340 338 335 333 331 328 327 328 328 328 326 322 324 329 327 324 325 324 322 322 323 322 321 321 321 321 321 321 322 322 322 323 323 323 324 325 325 324 323 322 321 320 319 318 316 313 307 298 293 295 297 299 298 297 296 294 291 284 279 279 278 277 276 275 274 273 272 271 272 271 269 267 265 263
352 351 350 351 350 348 348 349 349 348 347 345 342 339 335 333 331 330 329 328 328 329 326 322 324 326 325 325 325 323 322 322 322 322 322 322 322 322 322 322 323 323 323 323 323 324 325 326 326 325 324 323 321 321 320 318 316 312 304 297 295 298 300 300 298 297 296 294 289 281 278 277 276 275 274 272 271 270 270 271 272 272 271 269 267 264
353 352 351 352 352 348 348 349 349 349 349 347 344 340 336 335 333 332 330 329 328 328 327 325 325 325 326 327 324 322 322 323 323 324 324 324 324 324 323 324 324 324 324 324 324 325 326 327 327 326 325 324 322 322 321 319 315 309 301 296 298 302 302 301 298 296 296 294 288 281 279 278 276 274 272 270 270 269 270 272 274 275 274 271 267 264
353 352 351 354 354 349 347 349 349 348 348 347 345 341 337 336 336 334 332 331 328 327 328 329 325 323 326 327 324 323 325 325 325 325 325 325 325 324 324 324 324 324 325 325 325 326 327 327 328 327 326 325 324 323 322 319 314 307 299 296 300 304 304 301 299 297 296 292 287 282 279 278 276 274 271 270 270 270 270 272 274 275 275 273 270 265
353 352 352 354 356 350 347 350 350 348 348 347 344 342 340 338 337 336 334 332 329 327 328 329 325 323 327 327 324 326 326 325 326 326 326 326 325 324 324 324 324 325 325 326 327 328 328 329 329 329 328 326 326 325 323 320 314 304 297 299 303 305 305 303 300 297 295 292 288 284 281 278 276 274 272 270 270 270 271 272 272 273 273 272 271 267
352 352 351 353 356 352 348 350 351 349 348 347 344 343 341 340 338 337 336 334 331 329 328 328 326 326 328 327 325 326 326 326 327 327 326 326 324 324 324 324 325 326 326 327 328 329 329 330 331 331 329 328 328 327 325 320 312 301 296 300 303 305 307 304 300 297 295 292 289 286 284 281 277 274 272 271 270 270 271 271 272 272 271 270 269 267
352 353 351 351 355 353 350 351 352 350 350 349 346 344 343 342 340 339 338 337 334 332 329 328 327 328 328 326 325 326 326 326 327 326 326 325 324 324 325 326 326 326 327 328 329 329 330 331 332 332 330 329 329 329 326 321 312 300 297 302 304 307 308 305 300 296 294 292 289 286 284 282 279 277 274 273 273 272 272 273 272 272 271 270 268 265
352 353 351 350 353 353 350 351 352 351 350 349 348 347 346 345 343 341 341 340 337 334 331 329 328 329 328 326 326 327 326 326 327 327 326 325 324 325 326 326 327 327 328 329 329 330 331 332 333 334 331 329 329 331 328 321 311 301 301 306 308 309 310 306 300 296 295 294 291 288 284 281 279 277 276 276 276 276 276 275 273 271 269 268 266 263
352 353 351 350 351 352 351 351 352 352 350 350 349 349 348 347 346 344 343 342 338 334 332 330 330 330 329 328 327 327 327 327 327 328 326 326 326 327 327 328 328 329 330 330 331 332 333 334 335 334 332 330 330 333 330 321 309 302 305 309 311 311 311 307 302 299 298 297 295 293 289 284 279 276 274 274 275 276 277 275 273 270 267 265 263 260
353 352 352 350 350 352 351 351 352 352 351 351 351 350 349 349 348 347 346 345 340 334 331 331 331 330 329 328 327 327 328 328 329 329 328 327 328 328 329 330 330 331 331 331 332 333 334 334 334 334 333 331 331 333 332 322 309 306 310 313 315 315 312 308 305 302 301 299 297 296 293 289 284 279 276 273 273 274 275 274 273 271 268 265 263 260
353 353 353 351 350 351 352 351 352 352 352 352 352 351 350 349 349 348 348 346 341 335 333 332 331 330 329 329 329 329 329 329 330 330 329 328 329 330 330 331 332 332 332 332 333 333 334 334 334 334 333 331 331 333 332 323 309 309 314 316 317 316 312 308 306 304 303 301 298 297 295 292 288 284 280 277 274 273 272 272 272 269 265 264 261 254
354 353 353 352 351 351 352 352 353 353 353 352 352 352 350 349 348 348 349 348 340 335 335 334 333 332 332 331 331 330 329 330 331 331 330 330 331 332 332 332 332 332 332 332 333 333 334 334 333 333 332 330 331 332 331 322 308 308 314 315 315 314 310 308 308 307 304 301 299 297 294 291 288 285 281 279 276 273 271 271 268 262 258 254 244 232
354 353 353 353 352 351 353 354 353 353 353 352 353 353 351 350 348 346 348 349 342 337 337 336 335 334 333 332 332 331 330 331 332 332 331 332 333 334 333 333 333 333 333 333 333 333 333 333 333 332 331 330 330 331 329 320 307 309 315 315 314 313 311 310 311 309 306 303 300 297 293 290 287 283 279 276 273 271 271 268 261 252 241 230 221 215
354 354 354 354 353 352 353 354 353 352 353 353 353 353 351 351 348 345 346 348 344 340 338 336 335 335 333 333 333 332 332 333 333 334 334 335 335 335 334 333 333 333 333 333 333 333 332 333 332 331 330 329 329 330 327 317 308 311 316 315 314 314 313 312 313 311 308 304 301 297 293 290 286 281 276 270 266 265 265 261 251 231 215 212 210 204
355 355 354 354 354 353 353 354 353 353 354 354 354 353 351 349 348 346 346 347 344 341 338 336 335 336 334 334 334 334 334 334 336 337 337 337 337 336 334 334 334 333 333 333 333 332 332 332 332 330 329 328 328 328 324 314 307 311 315 314 314 315 315 314 314 313 310 307 302 299 296 291 286 279 271 262 258 257 256 249 229 204 201 205 200 195
355 356 355 354 355 354 354 355 355 354 354 354 353 353 351 349 347 346 347 348 345 341 339 337 337 336 335 335 336 336 335 336 337 339 338 337 337 336 335 334 334 334 334 333 333 332 332 332 331 330 328 326 327 327 322 310 305 310 313 312 313 316 317 316 316 315 313 310 306 303 300 294 287 276 262 251 247 245 241 226 202 191 196 199 193 195
355 356 355 355 355 355 354 355 356 355 353 353 353 353 352 351 349 347 346 347 346 343 340 338 338 337 337 337 337 337 337 338 338 339 338 337 337 337 335 335 335 334 334 333 333 333 332 332 331 330 328 326 327 326 320 308 304 308 311 311 313 317 319 319 318 318 316 314 311 309 305 298 288 271 253 240 233 230 219 199 185 185 191 194 192 196
355 356 356 355 355 355 355 356 357 355 354 354 353 353 352 351 350 348 346 346 344 343 341 340 339 339 339 339 339 339 340 340 339 339 338 338 338 337 336 335 335 334 334 334 334 333 333 333 332 331 329 327 327 325 316 305 304 307 310 311 314 319 321 321 322 322 320 319 318 317 314 308 295 270 241 222 214 208 195 183 179 182 187 188 187 189
355 356 356 355 356 355 355 356 357 356 355 355 354 353 352 351 349 348 347 345 344 343 343 342 341 341 340 340 340 341 341 341 340 339 339 339 338 337 336 335 335 335 335 335 334 334 335 334 333 332 329 327 327 323 312 303 304 308 310 311 314 321 324 324 326 325 324 326 328 332 342 354 7 91 172 188 193 188 180 176 176 180 183 181 178 184
355 356 356 356 356 356 356 357 358 356 355 355 354 354 353 351 348 347 346 346 345 344 344 343 343 342 341 341 342 342 343 342 341 341 341 341 340 338 337 336 336 336 335 336 336 335 336 336 335 333 330 328 327 321 308 300 304 308 308 309 315 322 325 326 328 329 330 333 338 351 29 61 76 96 130 172 185 178 175 175 176 179 180 176 178 190
355 356 357 357 356 357 357 357 358 357 354 354 354 353 353 352 350 348 347 346 346 345 345 345 344 343 343 342 343 344 344 343 343 343 342 342 341 339 338 337 337 336 336 336 337 336 336 336 336 334 331 329 327 320 305 297 303 307 306 308 314 321 323 326 329 332 335 338 342 355 34 65 75 87 121 187 183 175 174 175 175 176 177 177 183 202
355 356 357 357 357 358 357 356 357 356 355 355 355 353 353 353 351 350 349 348 347 346 346 346 345 344 344 344 344 344 345 344 344 344 343 343 341 340 338 338 338 337 336 337 337 337 336 336 336 335 332 329 326 318 302 296 302 305 305 307 313 318 322 326 330 334 337 339 340 349 10 35 52 63 156 204 182 176 174 174 174 174 172 172 184 213
355 355 356 357 357 358 357 356 357 356 355 355 356 355 354 354 353 351 350 349 349 348 347 346 346 345 345 345 344 345 346 345 345 344 344 343 342 341 339 338 338 337 336 337 337 337 336 336 336 335 332 329 324 313 298 294 301 303 303 305 311 316 322 327 329 332 337 337 337 346 359 7 12 346 237 194 180 177 174 173 173 170 162 163 184 217
355 355 356 356 356 357 357 356 357 357 356 355 356 356 355 355 354 353 351 351 351 350 349 348 347 346 346 346 345 346 347 346 345 345 345 344 343 341 340 339 338 337 337 337 337 336 336 337 337 336 333 330 322 307 290 290 297 301 302 305 311 316 322 325 326 330 335 335 335 344 352 350 337 300 227 189 180 177 174 173 170 161 155 165 193 220
354 354 355 356 356 357 357 356 356 357 357 356 356 356 356 356 356 354 353 352 352 351 350 349 348 347 347 347 347 347 347 347 346 346 346 345 344 342 340 339 338 337 337 337 337 336 337 338 338 337 335 331 322 299 280 284 292 298 302 305 311 317 320 322 323 327 331 335 337 343 348 346 335 304 211 189 182 178 174 172 166 156 156 173 201 232
354 354 354 355 356 356 356 356 356 357 358 357 357 357 357 356 356 355 354 354 353 352 351 351 350 349 348 348 348 348 348 348 347 346 346 346 344 343 341 340 339 339 339 339 338 338 338 339 339 337 336 332 321 292 273 280 291 298 302 306 311 317 319 318 320 323 327 333 339 343 348 349 336 286 199 188 183 179 175 171 164 158 162 178 196 238
353 354 354 355 356 356 357 356 356 356 357 358 358 358 357 357 356 355 355 354 354 353 352 352 351 350 350 349 349 349 348 348 348 347 347 347 345 344 342 341 341 342 341 341 340 339 339 340 340 340 338 334 320 287 269 279 292 299 303 307 313 318 318 316 316 318 321 327 341 348 350 345 325 251 192 186 183 179 175 172 168 167 174 185 185 213
354 354 355 356 356 357 357 357 356 356 357 358 358 358 357 357 356 356 355 355 354 354 353 352 352 351 351 351 351 350 349 349 349 348 348 348 347 346 345 344 344 344 344 343 342 341 342 342 341 341 339 333 315 285 274 284 294 301 304 308 316 320 316 313 313 314 317 323 341 357 355 341 307 219 183 183 183 180 177 176 176 177 185 196 193 209
Height
5763 5761 5759 5756 5754 5751 5749 5746 5743 5740 5737 5734 5731 5728 5725 5722 5720 5717 5713 5709 5705 5703 5700 5694 5689 5685 5681 5677 5674 5668 5663 5659 5654 5649 5645 5640 5635 5631 5625 5620 5616 5612 5607 5602 5597 5593 5588 5583 5578 5573 5569 5564 5560 5554 5548 5544 5539 5534 5530 5525 5521 5516 5511 5507 5503 5499 5496 5493 5489 5486 5484 5483 5483 5483 5482 5481 5482 5483 5483 5484 5484 5484 5484 5484 5485 5487
5762 5760 5757 5754 5752 5749 5746 5743 5740 5737 5734 5731 5728 5725 5722 5719 5717 5714 5709 5704 5700 5697 5695 5690 5685 5681 5676 5672 5668 5662 5656 5652 5648 5643 5638 5633 5629 5624 5619 5614 5609 5604 5599 5593 5588 5583 5579 5574 5569 5564 5559 5554 5548 5543 5538 5532 5527 5522 5517 5512 5507 5503 5498 5493 5489 5484 5481 5478 5474 5470 5468 5467 5466 5466 5465 5465 5466 5466 5466 5467 5467 5468 5469 5469 5470 5472
5760 5758 5755 5752 5749 5746 5743 5740 5737 5734 5731 5728 5725 5722 5719 5716 5713 5712 5706 5700 5695 5690 5688 5685 5680 5675 5671 5667 5663 5656 5651 5646 5641 5637 5632 5627 5622 5618 5613 5607 5602 5596 5591 5586 5580 5575 5570 5565 5560 5555 5549 5543 5537 5532 5527 5521 5516 5511 5505 5499 5494 5489 5483 5478 5474 5470 5466 5462 5458 5455 5452 5450 5449 5448 5447 5446 5447 5448 5449 5450 5450 5452 5454 5455 5456 5457
5758 5756 5753 5750 5747 5744 5741 5738 5734 5731 5728 5725 5722 5719 5716 5711 5707 5705 5702 5697 5691 5684 5680 5679 5676 5670 5664 5661 5657 5650 5645 5640 5635 5630 5625 5621 5617 5612 5606 5599 5593 5588 5583 5578 5572 5566 5561 5556 5550 5545 5539 5533 5526 5520 5514 5508 5503 5497 5491 5486 5481 5475 5469 5464 5459 5454 5450 5446 5442 5439 5435 5433 5430 5429 5429 5428 5428 5430 5430 5432 5434 5435 5438 5439 5441 5442
5756 5754 5751 5748 5745 5742 5739 5736 5733 5729 5725 5722 5719 5715 5711 5707 5702 5698 5694 5692 5689 5682 5675 5672 5671 5667 5659 5653 5650 5644 5638 5635 5629 5624 5618 5614 5609 5603 5597 5591 5585 5580 5575 5569 5563 5557 5551 5545 5540 5534 5527 5520 5513 5506 5500 5494 5488 5483 5478 5473 5468 5462 5454 5449 5443 5437 5433 5429 5425 5421 5418 5415 5412 5411 5410 5409 5409 5410 5411 5413 5416 5418 5419 5421 5424 5426
5755 5752 5749 5746 5743 5740 5737 5734 5730 5727 5723 5719 5716 5712 5707 5703 5700 5695 5690 5686 5683 5679 5672 5666 5663 5661 5655 5646 5642 5638 5633 5629 5624 5618 5612 5607 5601 5595 5589 5583 5577 5572 5566 5560 5553 5546 5540 5534 5528 5522 5515 5507 5500 5494 5488 5482 5476 5470 5464 5460 5454 5448 5440 5433 5427 5421 5415 5411 5406 5402 5399 5396 5393 5392 5392 5392 5391 5392 5393 5394 5397 5399 5400 5402 5406 5409
5753 5750 5747 5744 5741 5738 5734 5731 5727 5724 5721 5717 5713 5709 5704 5700 5696 5692 5686 5680 5676 5672 5667 5661 5655 5653 5649 5640 5635 5631 5626 5623 5618 5611 5605 5598 5592 5586 5580 5575 5570 5564 5557 5550 5543 5536 5529 5523 5516 5509 5503 5496 5489 5483 5476 5470 5463 5456 5450 5445 5440 5434 5426 5418 5411 5405 5399 5393 5389 5385 5381 5377 5375 5373 5374 5375 5374 5375 5377 5378 5379 5380 5382 5383 5386 5391
5751 5748 5745 5742 5738 5735 5732 5728 5725 5721 5718 5714 5710 5705 5701 5697 5693 5688 5683 5677 5671 5666 5661 5655 5649 5645 5640 5633 5628 5625 5621 5616 5610 5602 5596 5590 5584 5578 5572 5567 5561 5554 5547 5539 5532 5525 5518 5511 5504 5497 5491 5485 5477 5470 5463 5456 5449 5441 5435 5430 5425 5419 5412 5403 5396 5389 5382 5376 5372 5369 5365 5362 5360 5357 5357 5358 5358 5359 5361 5362 5363 5363 5365 5366 5369 5373
5750 5746 5743 5739 5736 5732 5728 5725 5721 5718 5714 5710 5706 5702 5698 5693 5689 5684 5679 5673 5667 5662 5657 5649 5643 5638 5634 5629 5623 5619 5615 5608 5600 5593 5587 5581 5575 5569 5563 5556 5550 5543 5535 5528 5520 5514 5506 5499 5493 5486 5479 5473 5465 5457 5450 5443 5436 5427 5420 5414 5409 5403 5396 5389 5382 5375 5368 5362 5357 5354 5351 5348 5347 5345 5344 5344 5345 5345 5346 5347 5348 5349 5350 5353 5355 5358
5748 5744 5741 5737 5733 5729 5725 5721 5717 5714 5710 5706 5702 5698 5694 5689 5684 5679 5674 5670 5664 5658 5651 5644 5638 5630 5626 5626 5619 5611 5606 5598 5590 5584 5578 5572 5566 5560 5554 5547 5540 5533 5526 5519 5512 5505 5497 5490 5483 5476 5468 5460 5453 5446 5439 5432 5425 5416 5407 5399 5394 5388 5381 5375 5368 5361 5356 5351 5345 5342 5339 5337 5336 5335 5334 5334 5335 5335 5335 5335 5337 5338 5340 5341 5343 5345
5746 5742 5738 5734 5731 5727 5722 5718 5714 5709 5705 5702 5698 5695 5691 5686 5681 5675 5670 5665 5659 5654 5647 5639 5634 5625 5617 5616 5613 5606 5599 5591 5583 5577 5571 5565 5559 5553 5547 5539 5532 5525 5518 5511 5503 5496 5490 5483 5475 5467 5458 5450 5442 5435 5427 5420 5413 5404 5395 5386 5379 5374 5367 5361 5355 5349 5344 5340 5335 5332 5330 5328 5327 5326 5326 5326 5327 5327 5327 5327 5328 5329 5331 5332 5333 5335
5744 5740 5736 5732 5728 5724 5719 5715 5710 5705 5701 5697 5692 5688 5685 5682 5678 5672 5667 5661 5655 5651 5646 5639 5634 5625 5615 5610 5607 5601 5594 5587 5580 5573 5567 5561 5554 5547 5539 5532 5525 5517 5509 5501 5493 5487 5480 5472 5464 5456 5447 5439 5431 5423 5415 5406 5398 5390 5382 5374 5366 5361 5355 5348 5342 5337 5333 5330 5327 5324 5322 5321 5320 5319 5319 5319 5319 5320 5319 5320 5321 5322 5323 5325 5326 5327
5743 5738 5734 5730 5726 5721 5716 5712 5707 5702 5697 5693 5688 5682 5677 5674 5671 5666 5661 5657 5652 5648 5643 5637 5631 5623 5615 5607 5602 5597 5589 5581 5574 5567 5560 5554 5546 5539 5532 5524 5516 5507 5499 5492 5484 5477 5469 5460 5451 5442 5434 5425 5418 5410 5401 5392 5383 5375 5368 5361 5353 5348 5343 5337 5331 5326 5323 5321 5319 5317 5315 5314 5313 5312 5312 5311 5312 5312 5313 5313 5314 5315 5316 5318 5319 5321
5741 5736 5731 5727 5723 5718 5713 5709 5704 5699 5694 5689 5683 5677 5671 5665 5659 5655 5651 5647 5645 5642 5637 5630 5621 5614 5609 5604 5599 5592 5583 5574 5566 5558 5551 5544 5536 5529 5521 5514 5507 5499 5492 5484 5476 5467 5458 5449 5440 5430 5421 5413 5404 5396 5388 5379 5369 5361 5354 5348 5341 5336 5332 5326 5321 5317 5315 5314 5313 5311 5309 5308 5306 5306 5306 5305 5305 5305 5306 5307 5307 5308 5310 5311 5313 5315
5737 5733 5728 5723 5719 5714 5709 5704 5699 5695 5689 5684 5679 5673 5667 5660 5653 5647 5641 5636 5632 5630 5630 5625 5615 5605 5601 5596 5590 5583 5574 5567 5559 5550 5543 5536 5529 5521 5513 5506 5499 5491 5484 5475 5467 5458 5448 5439 5430 5420 5410 5401 5392 5384 5376 5367 5357 5348 5342 5336 5330 5325 5321 5316 5312 5309 5308 5307 5306 5304 5303 5301 5300 5300 5299 5299 5299 5299 5300 5301 5301 5302 5304 5305 5307 5309
5734 5730 5725 5720 5715 5710 5706 5701 5695 5690 5684 5679 5674 5669 5663 5657 5650 5644 5638 5631 5624 5619 5618 5617 5609 5600 5594 5591 5584 5575 5566 5560 5552 5543 5536 5529 5523 5515 5507 5498 5490 5481 5473 5465 5455 5446 5437 5428 5418 5408 5398 5389 5381 5373 5365 5356 5346 5337 5331 5325 5320 5315 5311 5307 5305 5303 5302 5301 5299 5298 5296 5295 5294 5293 5293 5293 5293 5293 5294 5294 5296 5297 5298 5300 5301 5303
5731 5728 5722 5717 5713 5708 5702 5697 5692 5687 5681 5676 5671 5666 5660 5654 5647 5640 5633 5629 5621 5612 5608 5606 5601 5593 5588 5587 5580 5569 5560 5554 5546 5538 5530 5522 5515 5508 5499 5490 5480 5470 5461 5453 5444 5434 5426 5417 5407 5397 5387 5378 5369 5362 5354 5346 5337 5328 5322 5316 5311 5307 5303 5301 5299 5297 5296 5295 5293 5292 5290 5289 5288 5288 5287 5288 5287 5287 5288 5289 5290 5292 5293 5294 5295 5297
5729 5727 5721 5714 5709 5706 5700 5695 5690 5684 5679 5673 5668 5662 5656 5650 5644 5634 5625 5621 5616 5607 5601 5599 5593 5583 5578 5576 5568 5559 5552 5545 5537 5529 5521 5513 5506 5499 5490 5480 5469 5459 5450 5441 5433 5424 5415 5406 5396 5387 5377 5368 5359 5351 5343 5336 5328 5321 5314 5308 5303 5299 5297 5295 5293 5292 5290 5289 5287 5286 5285 5284 5283 5282 5282 5282 5282 5282 5283 5284 5285 5286 5287 5289 5290 5291
5725 5723 5720 5713 5706 5702 5697 5691 5686 5681 5676 5669 5663 5658 5651 5644 5638 5631 5620 5612 5606 5597 5590 5589 5585 5574 5570 5567 5557 5547 5540 5531 5523 5516 5509 5501 5494 5486 5478 5469 5459 5450 5440 5431 5423 5414 5406 5396 5386 5376 5366 5357 5348 5341 5333 5326 5319 5313 5306 5301 5296 5292 5291 5290 5288 5286 5285 5283 5282 5280 5279 5278 5277 5277 5277 5277 5277 5277 5278 5279 5279 5280 5282 5283 5285 5286
5723 5718 5715 5710 5703 5698 5693 5687 5681 5676 5671 5665 5659 5653 5647 5639 5632 5626 5619 5609 5600 5590 5579 5575 5573 5565 5561 5558 5548 5538 5530 5520 5511 5505 5498 5490 5482 5474 5466 5458 5449 5441 5431 5422 5413 5405 5396 5387 5377 5366 5355 5345 5337 5330 5323 5316 5310 5305 5300 5295 5290 5288 5286 5285 5284 5281 5279 5278 5277 5275 5274 5273 5273 5272 5272 5272 5272 5273 5273 5274 5274 5275 5276 5278 5279 5281
5720 5715 5711 5707 5701 5694 5689 5683 5677 5671 5666 5660 5654 5648 5641 5635 5627 5620 5616 5610 5600 5589 5578 5568 5562 5558 5555 5549 5540 5532 5523 5513 5505 5498 5490 5482 5474 5467 5459 5449 5440 5432 5423 5413 5404 5396 5387 5378 5368 5357 5346 5336 5328 5321 5314 5308 5302 5297 5293 5289 5285 5283 5282 5281 5279 5277 5275 5273 5272 5271 5270 5269 5268 5268 5267 5267 5268 5268 5269 5269 5270 5271 5272 5273 5274 5276
5718 5712 5707 5704 5699 5693 5687 5680 5674 5669 5663 5655 5649 5643 5636 5629 5622 5612 5607 5604 5596 5586 5579 5566 5554 5553 5552 5543 5534 5526 5517 5508 5500 5491 5483 5475 5467 5459 5452 5443 5434 5425 5415 5405 5396 5387 5378 5369 5359 5348 5338 5328 5319 5312 5306 5300 5295 5290 5286 5283 5280 5278 5277 5275 5274 5272 5270 5268 5267 5266 5265 5264 5264 5264 5263 5263 5263 5264 5264 5265 5265 5266 5267 5268 5269 5270
5715 5710 5705 5700 5695 5689 5683 5677 5671 5666 5660 5653 5645 5639 5631 5625 5618 5609 5599 5595 5589 5581 5576 5566 5551 5547 5547 5538 5529 5521 5512 5503 5495 5485 5476 5468 5460 5452 5443 5436 5428 5418 5409 5398 5387 5377 5369 5360 5350 5339 5329 5320 5312 5304 5298 5293 5288 5284 5280 5277 5275 5274 5272 5270 5269 5267 5265 5264 5263 5262 5261 5260 5260 5260 5260 5260 5260 5260 5260 5261 5261 5262 5262 5263 5264 5265
5712 5707 5702 5698 5693 5688 5682 5675 5668 5661 5656 5650 5643 5636 5629 5621 5615 5608 5599 5591 5583 5575 5569 5560 5548 5544 5541 5534 5525 5515 5504 5497 5489 5479 5470 5461 5453 5444 5435 5427 5418 5409 5400 5390 5379 5369 5359 5350 5341 5331 5321 5312 5304 5297 5291 5286 5282 5278 5275 5272 5271 5269 5267 5265 5263 5262 5260 5259 5258 5257 5257 5256 5256 5256 5256 5256 5256 5256 5256 5257 5257 5257 5258 5258 5259 5260
5709 5702 5697 5692 5687 5682 5678 5673 5667 5661 5654 5647 5640 5632 5624 5617 5609 5602 5595 5587 5578 5570 5562 5551 5542 5538 5535 5527 5518 5507 5498 5490 5483 5473 5463 5452 5443 5433 5424 5416 5407 5397 5389 5380 5370 5360 5350 5341 5333 5323 5314 5305 5297 5290 5284 5279 5275 5272 5269 5267 5266 5264 5262 5260 5258 5257 5256 5255 5254 5253 5253 5253 5253 5253 5253 5253 5253 5253 5253 5253 5253 5253 5254 5254 5255 5256
5706 5699 5693 5686 5679 5671 5666 5662 5657 5653 5648 5642 5635 5627 5619 5613 5605 5597 5589 5581 5572 5564 5556 5546 5533 5526 5525 5520 5510 5500 5491 5482 5474 5465 5455 5444 5433 5423 5413 5405 5396 5386 5377 5368 5359 5350 5340 5332 5325 5316 5308 5299 5291 5284 5278 5273 5270 5267 5265 5263 5261 5260 5258 5255 5254 5252 5251 5251 5250 5250 5249 5249 5249 5249 5249 5249 5249 5249 5249 5249 5249 5249 5249 5250 5251 5252
5703 5697 5690 5685 5678 5669 5662 5658 5651 5645 5640 5635 5630 5623 5615 5608 5601 5593 5584 5576 5567 5556 5550 5544 5529 5516 5514 5510 5499 5489 5481 5471 5463 5454 5445 5434 5424 5413 5405 5396 5387 5377 5367 5357 5348 5340 5332 5324 5317 5309 5301 5293 5285 5279 5273 5268 5264 5261 5260 5259 5257 5255 5253 5251 5249 5248 5247 5247 5246 5246 5245 5245 5245 5245 5245 5245 5245 5245 5245 5245 5245 5245 5245 5246 5247 5247
5701 5695 5688 5683 5678 5668 5660 5656 5649 5642 5636 5629 5624 5618 5611 5603 5596 5589 5581 5573 5563 5550 5541 5539 5529 5514 5507 5500 5489 5479 5471 5463 5455 5445 5435 5425 5415 5405 5397 5389 5379 5369 5358 5348 5338 5330 5322 5315 5308 5301 5293 5286 5279 5273 5268 5263 5260 5257 5256 5255 5253 5251 5249 5247 5245 5244 5243 5243 5242 5242 5242 5241 5241 5241 5241 5241 5241 5241 5241 5241 5241 5241 5242 5242 5243 5243
5698 5692 5685 5681 5677 5668 5659 5653 5647 5640 5634 5627 5620 5612 5605 5597 5590 5584 5577 5569 5560 5548 5535 5529 5521 5510 5500 5491 5482 5475 5466 5456 5447 5438 5428 5418 5408 5399 5390 5380 5370 5360 5349 5339 5330 5322 5314 5308 5301 5293 5286 5279 5272 5267 5262 5258 5256 5254 5252 5251 5249 5247 5245 5243 5242 5240 5239 5239 5239 5238 5238 5237 5237 5237 5237 5237 5237 5237 5238 5238 5238 5238 5238 5238 5239 5239
5695 5689 5682 5677 5673 5666 5657 5651 5645 5637 5631 5625 5618 5610 5602 5595 5587 5580 5573 5565 5555 5544 5531 5520 5511 5503 5495 5485 5476 5469 5460 5450 5442 5433 5423 5412 5401 5391 5382 5371 5361 5351 5341 5332 5323 5315 5308 5302 5295 5288 5281 5274 5267 5261 5256 5253 5251 5249 5248 5247 5245 5244 5242 5240 5238 5237 5236 5236 5235 5235 5234 5234 5233 5233 5232 5233 5233 5233 5234 5234 5234 5234 5234 5235 5235 5236
5692 5687 5679 5672 5669 5664 5655 5649 5643 5634 5627 5620 5614 5608 5600 5593 5584 5575 5567 5559 5547 5536 5526 5514 5504 5498 5492 5481 5471 5463 5454 5445 5437 5428 5417 5405 5394 5384 5374 5363 5353 5342 5333 5325 5316 5307 5300 5293 5288 5282 5275 5269 5263 5257 5252 5248 5246 5245 5244 5243 5241 5239 5238 5237 5235 5234 5233 5232 5232 5231 5231 5230 5229 5229 5228 5228 5229 5229 5230 5230 5230 5230 5230 5231 5231 5232
5689 5683 5677 5669 5664 5659 5651 5644 5638 5632 5625 5618 5611 5604 5597 5588 5578 5568 5559 5550 5537 5524 5515 5506 5497 5489 5482 5473 5464 5457 5449 5439 5430 5420 5409 5397 5387 5376 5364 5354 5344 5334 5324 5316 5308 5299 5291 5284 5279 5274 5268 5263 5257 5253 5248 5244 5242 5241 5240 5239 5237 5235 5234 5233 5232 5230 5229 5228 5228 5227 5227 5226 5226 5225 5225 5225 5225 5225 5226 5226 5226 5226 5227 5227 5228 5228
5685 5679 5672 5664 5658 5654 5647 5638 5631 5625 5618 5612 5604 5595 5587 5580 5572 5563 5554 5545 5534 5520 5508 5498 5491 5483 5474 5466 5456 5447 5438 5429 5420 5411 5398 5386 5376 5366 5355 5345 5335 5325 5316 5308 5300 5293 5285 5278 5272 5267 5261 5256 5251 5248 5243 5240 5238 5237 5236 5234 5232 5231 5230 5230 5229 5227 5226 5225 5224 5223 5222 5222 5222 5221 5221 5221 5221 5222 5222 5222 5222 5223 5223 5224 5224 5225
5682 5675 5668 5659 5651 5646 5640 5634 5627 5619 5610 5602 5595 5587 5579 5571 5564 5555 5546 5537 5528 5519 5509 5499 5490 5481 5470 5459 5447 5436 5427 5419 5411 5403 5391 5378 5367 5357 5347 5337 5328 5319 5311 5303 5295 5289 5282 5274 5268 5262 5257 5251 5247 5243 5240 5237 5235 5233 5232 5230 5229 5228 5227 5226 5225 5224 5223 5221 5220 5219 5219 5218 5217 5217 5217 5217 5217 5218 5218 5218 5219 5220 5220 5221 5222 5223
5679 5671 5664 5656 5646 5639 5632 5624 5616 5609 5602 5594 5588 5581 5573 5564 5555 5548 5543 5535 5523 5512 5504 5495 5484 5473 5461 5451 5441 5430 5420 5412 5404 5395 5384 5372 5362 5350 5339 5331 5323 5314 5306 5298 5290 5284 5277 5270 5264 5258 5252 5247 5243 5238 5235 5233 5232 5231 5229 5228 5226 5225 5224 5223 5222 5220 5219 5218 5217 5216 5215 5214 5214 5213 5213 5213 5214 5214 5215 5215 5216 5217 5217 5218 5219 5220
5674 5667 5660 5652 5644 5635 5628 5619 5609 5602 5598 5591 5584 5576 5566 5557 5546 5535 5530 5528 5517 5502 5491 5482 5472 5462 5453 5443 5434 5424 5413 5403 5397 5389 5377 5366 5356 5346 5335 5325 5318 5309 5301 5293 5285 5278 5271 5265 5259 5252 5247 5242 5239 5235 5231 5230 5228 5227 5226 5225 5223 5222 5221 5220 5218 5217 5215 5214 5213 5212 5211 5210 5210 5209 5209 5210 5210 5210 5211 5212 5213 5214 5215 5216 5217 5218
5671 5662 5655 5647 5639 5629 5621 5616 5609 5601 5593 5584 5575 5566 5557 5548 5539 5525 5514 5511 5504 5492 5480 5470 5462 5454 5445 5435 5426 5416 5405 5395 5388 5380 5370 5359 5350 5340 5330 5321 5312 5304 5297 5289 5281 5274 5267 5261 5255 5248 5242 5238 5235 5231 5228 5226 5225 5224 5223 5221 5220 5219 5218 5216 5215 5213 5212 5211 5210 5208 5207 5206 5206 5205 5205 5206 5206 5207 5208 5209 5210 5211 5212 5214 5215 5217
5668 5660 5650 5641 5634 5625 5615 5607 5599 5590 5582 5573 5564 5557 5548 5540 5534 5524 5512 5503 5495 5485 5475 5465 5455 5447 5437 5427 5416 5406 5395 5384 5376 5369 5359 5350 5342 5333 5324 5315 5307 5299 5292 5284 5277 5270 5264 5257 5251 5244 5238 5234 5231 5228 5224 5222 5221 5220 5219 5218 5217 5216 5215 5213 5212 5210 5209 5207 5206 5204 5203 5202 5201 5201 5201 5202 5202 5203 5205 5206 5208 5209 5210 5212 5214 5216
5664 5656 5647 5638 5629 5620 5611 5601 5591 5581 5574 5567 5560 5552 5544 5535 5527 5519 5510 5502 5492 5480 5469 5460 5450 5440 5430 5419 5408 5397 5385 5374 5365 5358 5350 5342 5335 5326 5316 5309 5302 5294 5287 5280 5272 5265 5258 5252 5246 5240 5234 5230 5227 5224 5221 5219 5218 5217 5216 5215 5214 5213 5212 5210 5209 5207 5205 5204 5202 5200 5198 5197 5196 5196 5197 5198 5199 5200 5202 5204 5206 5207 5209 5211 5214 5215
5660 5652 5644 5636 5627 5618 5609 5601 5592 5581 5572 5564 5558 5551 5544 5535 5525 5513 5502 5493 5484 5475 5465 5455 5445 5435 5424 5413 5402 5392 5381 5369 5357 5350 5344 5336 5329 5321 5311 5303 5295 5288 5281 5274 5268 5261 5255 5248 5242 5236 5230 5225 5222 5219 5217 5216 5216 5215 5213 5212 5211 5210 5209 5208 5206 5204 5202 5200 5198 5196 5195 5193 5193 5193 5193 5195 5196 5198 5200 5202 5204 5206 5208 5211 5213 5214
5659 5650 5641 5632 5624 5615 5607 5599 5590 5582 5573 5564 5554 5545 5538 5531 5522 5510 5496 5484 5476 5470 5462 5452 5441 5430 5418 5407 5397 5387 5378 5369 5357 5348 5340 5332 5324 5316 5307 5299 5291 5284 5276 5269 5262 5256 5250 5244 5238 5231 5226 5221 5218 5215 5214 5213 5213 5212 5211 5210 5209 5207 5206 5205 5203 5201 5199 5198 5196 5194 5192 5191 5191 5191 5192 5193 5195 5197 5199 5201 5203 5205 5208 5210 5212 5213
5655 5647 5638 5628 5620 5611 5602 5595 5587 5578 5570 5561 5552 5543 5533 5522 5512 5503 5494 5485 5477 5467 5457 5447 5436 5424 5413 5403 5394 5384 5374 5366 5357 5347 5338 5329 5319 5310 5302 5293 5286 5279 5272 5265 5258 5251 5245 5239 5234 5228 5223 5218 5214 5211 5210 5210 5210 5209 5208 5207 5206 5205 5204 5202 5201 5199 5197 5196 5194 5192 5191 5190 5190 5191 5191 5193 5194 5196 5198 5200 5202 5205 5207 5209 5211 5212
5650 5643 5634 5624 5616 5607 5597 5588 5579 5569 5561 5555 5547 5539 5529 5518 5507 5499 5491 5484 5475 5463 5452 5441 5431 5419 5408 5397 5388 5379 5370 5362 5353 5344 5334 5324 5314 5304 5295 5287 5279 5271 5264 5259 5252 5246 5240 5234 5229 5224 5219 5214 5210 5208 5207 5207 5207 5206 5206 5205 5204 5203 5201 5200 5199 5197 5196 5194 5193 5192 5191 5190 5190 5191 5192 5193 5194 5195 5197 5199 5202 5204 5207 5208 5210 5211
5647 5640 5631 5621 5611 5601 5592 5584 5578 5570 5561 5553 5544 5535 5528 5521 5512 5501 5490 5479 5469 5458 5446 5435 5425 5414 5404 5392 5382 5374 5365 5356 5347 5337 5327 5318 5308 5298 5288 5280 5272 5264 5258 5252 5246 5240 5234 5229 5224 5220 5215 5210 5207 5205 5204 5204 5205 5204 5203 5203 5202 5201 5200 5198 5197 5196 5195 5193 5193 5192 5191 5191 5191 5191 5192 5193 5194 5195 5197 5199 5202 5204 5206 5208 5209 5210
5646 5638 5631 5622 5613 5603 5592 5586 5581 5574 5565 5557 5548 5538 5530 5523 5513 5502 5489 5476 5465 5453 5441 5429 5419 5409 5399 5388 5378 5370 5361 5351 5341 5331 5321 5312 5302 5292 5282 5274 5266 5258 5251 5246 5240 5235 5229 5224 5220 5216 5212 5207 5204 5202 5201 5201 5202 5202 5201 5201 5200 5199 5198 5197 5196 5195 5194 5193 5192 5191 5191 5190 5190 5191 5191 5192 5193 5195 5197 5199 5202 5204 5205 5207 5208 5209
5646 5638 5631 5623 5617 5611 5602 5591 5583 5576 5567 5559 5552 5541 5531 5521 5510 5498 5487 5475 5462 5450 5438 5426 5414 5403 5392 5382 5372 5364 5356 5345 5335 5326 5316 5306 5296 5286 5276 5267 5260 5253 5245 5239 5234 5229 5224 5220 5216 5212 5208 5205 5201 5199 5199 5199 5199 5200 5199 5199 5198 5197 5196 5195 5194 5193 5193 5192 5191 5191 5190 5190 5190 5190 5191 5192 5193 5195 5197 5199 5201 5203 5205 5206 5207 5208
5647 5639 5632 5624 5615 5608 5600 5589 5580 5571 5561 5553 5546 5539 5530 5521 5510 5497 5484 5472 5461 5448 5435 5422 5411 5400 5389 5379 5368 5358 5350 5340 5329 5320 5311 5300 5289 5279 5270 5261 5254 5247 5240 5233 5228 5223 5219 5215 5211 5208 5205 5202 5199 5197 5197 5197 5197 5197 5197 5197 5196 5195 5194 5193 5193 5192 5191 5191 5190 5190 5189 5189 5189 5189 5190 5191 5192 5195 5197 5199 5201 5203 5205 5206 5206 5207
5643 5635 5628 5621 5612 5604 5597 5591 5585 5578 5567 5555 5545 5535 5526 5516 5506 5496 5483 5470 5458 5447 5435 5422 5409 5396 5385 5375 5364 5354 5345 5335 5324 5314 5304 5294 5283 5273 5264 5256 5248 5241 5234 5229 5223 5218 5214 5210 5206 5203 5201 5198 5196 5195 5195 5195 5195 5195 5195 5195 5194 5193 5192 5192 5191 5191 5190 5190 5189 5189 5188 5188 5188 5189 5189 5190 5192 5194 5197 5199 5201 5203 5204 5205 5205 5206
5642 5633 5624 5618 5612 5605 5597 5589 5581 5575 5568 5557 5545 5532 5520 5509 5500 5490 5480 5468 5455 5443 5432 5421 5408 5394 5381 5370 5360 5349 5340 5330 5320 5309 5299 5289 5278 5268 5258 5249 5242 5235 5228 5223 5218 5213 5209 5205 5202 5200 5197 5195 5193 5193 5193 5194 5194 5194 5193 5193 5193 5192 5191 5190 5190 5189 5189 5188 5188 5188 5187 5187 5187 5188 5188 5189 5191 5194 5197 5199 5201 5202 5203 5204 5205 5205
5642 5634 5624 5615 5605 5596 5586 5576 5564 5556 5550 5543 5534 5525 5515 5506 5496 5486 5475 5463 5451 5438 5425 5414 5403 5392 5380 5368 5356 5346 5336 5326 5316 5305 5295 5284 5272 5262 5251 5243 5236 5230 5223 5218 5213 5209 5205 5201 5199 5196 5194 5192 5191 5191 5192 5192 5192 5192 5192 5192 5191 5191 5190 5189 5189 5188 5187 5187 5187 5187 5186 5186 5186 5187 5188 5189 5191 5194 5196 5198 5200 5201 5203 5204 5204 5205
5638 5629 5619 5609 5598 5588 5580 5572 5563 5552 5543 5536 5529 5522 5513 5504 5494 5482 5470 5458 5446 5433 5419 5406 5395 5384 5375 5366 5356 5344 5333 5323 5312 5301 5291 5280 5268 5257 5247 5238 5230 5224 5219 5213 5209 5205 5201 5198 5196 5193 5192 5190 5189 5189 5190 5191 5191 5190 5190 5190 5190 5189 5188 5188 5187 5187 5186 5186 5186 5186 5186 5185 5186 5186 5187 5188 5191 5193 5196 5198 5199 5201 5202 5203 5204 5204